Flag for Russia Weather past 2 weeks in Kazan, Russia

Now
32 °F

Light rain. Overcast.


Feels Like: 29 °F
Forecast: 23 / 29 °F
Wind: 3 mph from Southwest

Location: Kazan'

Current Time: Dec 21, 2014 at 8:03:00 AM

Latest Report: Dec 21, 2014 at 7:30 AM


Visibility: N/A

Pressure: 29.47 "Hg

Humidity: 100%

Dew point: 32 °F

Location of KazanLocation

Historic Weather in Kazan — Graph

°F

Kazan temperature yesterday

Maximum temperature yesterday: 34 °F (at 5:30 PM)
Minimum temperature yesterday: 25 °F (at 12:30 AM)
Average temperature yesterday: 29 °F

Past Weeks' High & Low Weather Summary

 TemperatureHumidityPressure
High36 °F (Dec 13, 2:30 AM)100% (Dec 9, 9:30 PM)30.57 "Hg (Dec 9, 9:30 PM)
Low-9 °F (Dec 6, 8:00 AM)67% (Dec 8, 7:00 AM)29.45 "Hg (Dec 21, 4:00 AM)
Average25 °F92%30.17 "Hg
* Reported Dec 6 7:00 AM — Dec 21 7:00 AM, Kazan, Weather by CustomWeather, © 2014

Note: Actual official high and low records may vary slightly from our data, if they occured in-between our weather recording intervals... More about our weather records

Advertising

Kazan weather history for previous 24 hours

 ConditionsComfort  
Time TempWeatherWind HumidityBarometerVisibility
7:00 AM
Dec 21
32 °FLight rain. Overcast.3 mph100%29.47 "Hg3 mi
6:30 AM32 °FLight rain. Low clouds.6 mph100%29.47 "HgN/A
5:30 AM32 °FRain. Ice fog.8 mph100%29.45 "Hg1 mi
5:00 AM32 °FLight rain. Ice fog.8 mph100%29.45 "Hg1 mi
4:30 AM32 °FLight rain. Ice fog.8 mph100%29.45 "Hg2 mi
4:00 AM32 °FLight rain. Ice fog.8 mph100%29.45 "Hg2 mi
3:30 AM32 °FRain. Ice fog.8 mph100%29.47 "Hg1 mi
3:00 AM32 °FLight rain. Ice fog.8 mph100%29.47 "Hg2 mi
2:30 AM32 °FRain. Ice fog.8 mph100%29.47 "Hg1 mi
2:00 AM32 °FRain. Ice fog.10 mph100%29.47 "Hg1 mi
1:30 AM32 °FRain. Ice fog.13 mph100%29.47 "Hg1 mi
1:00 AM32 °FRain. Ice fog.13 mph100%29.47 "Hg1 mi
12:30 AM32 °FRain. Ice fog.13 mph100%29.47 "Hg1 mi
12:00 AM32 °FRain. Ice fog.13 mph100%29.47 "Hg1 mi
11:30 PM
Dec 20
32 °FRain. Ice fog.15 mph100%29.47 "Hg1 mi
11:00 PM32 °FRain. Ice fog.15 mph100%29.50 "Hg1 mi
10:30 PM32 °FRain. Ice fog.15 mph100%29.50 "Hg1 mi
10:00 PM32 °FRain. Ice fog.15 mph100%29.50 "Hg1 mi
9:30 PM32 °FRain. Ice fog.20 mph100%29.50 "Hg1 mi
9:00 PM32 °FLight rain. Ice fog.20 mph100%29.50 "Hg2 mi
8:30 PM32 °FLight rain. Ice fog.20 mph100%29.50 "Hg3 mi
8:00 PM32 °FLight rain. Ice fog.22 mph100%29.50 "Hg2 mi
7:30 PM32 °FLow clouds.22 mph100%29.53 "HgN/A
7:00 PM34 °FLow clouds.22 mph93%29.53 "HgN/A
6:30 PM34 °FLow clouds.20 mph93%29.53 "HgN/A
6:00 PM34 °FLow clouds.22 mph93%29.53 "HgN/A
5:30 PM34 °FLow clouds.20 mph93%29.56 "HgN/A
5:00 PM32 °FLow clouds.22 mph100%29.56 "HgN/A
4:30 PM32 °FLow clouds.17 mph100%29.56 "HgN/A
4:00 PM32 °FLow clouds.13 mph100%29.59 "HgN/A
3:30 PM32 °FLight freezing rain. Ice fog.13 mph93%29.62 "Hg3 mi
3:00 PM32 °FLow clouds.13 mph93%29.62 "HgN/A
2:30 PM32 °FOvercast.15 mph93%29.62 "HgN/A
2:00 PM32 °FOvercast.17 mph93%29.62 "HgN/A
1:30 PM32 °FLow clouds.15 mph93%29.62 "HgN/A
1:00 PM30 °FLight freezing rain. Low clouds.15 mph100%29.62 "HgN/A
12:30 PM30 °FLow clouds.15 mph100%29.65 "HgN/A
12:00 PM30 °FLow clouds.13 mph100%29.65 "HgN/A
11:30 AM28 °FLow clouds.15 mph100%29.65 "HgN/A
11:00 AM28 °FOvercast.15 mph100%29.65 "HgN/A
10:30 AM28 °FLow clouds.13 mph100%29.68 "HgN/A
10:00 AM28 °FLow clouds.13 mph100%29.68 "HgN/A
9:30 AM28 °FLow clouds.13 mph93%29.68 "HgN/A
9:00 AM28 °FLight snow. Low clouds.13 mph93%29.68 "Hg3 mi
8:30 AM27 °FLight snow. Low clouds.13 mph100%29.68 "Hg2 mi
8:00 AM27 °FLight snow. Low clouds.13 mph100%29.68 "Hg3 mi
Weather by CustomWeather, © 2014

See weather overviewHow to use our weather pages